#datint,netname,site,siteID,timestamp,IntT,BattV,AirT2,AirT,AirT_Avg,AirT_Max,AirT_Min,RH_Avg,RH_Max,RH_Min,EA_Avg,Td_Avg,Td_Max,Td_Min,WindS_Smp,WindS_Avg,WindD_Avg,WindD_SD,WindS_Max,ETo,ETr,SoilT4,SoilT8,SoilVWC8,SolarW_Avg,wetstate_Avg,wetT_Avg,Precip_accum,Precip_WPG,Precip_TB
15min,AgWx,beryljct,423,01MAR2019:00:00:00,46.8,12.96,47.5,46.9,47.0,47.4,46.7,60,61,59,0.652,33.7,33.8,33.6,17.38,15.5,209,6.6,21.4,0.00034,0.00040,.,33.5,24,0,0,46.5,10.85,0.00,0.00
15min,AgWx,beryljct,423,01MAR2019:00:15:00,46.9,12.96,47.4,46.6,47.0,47.3,46.6,59,60,59,0.650,33.6,33.7,33.5,16.46,15.2,210,6.9,19.9,0.00034,0.00040,.,33.5,25,0,0,46.4,10.84,0.00,0.00
15min,AgWx,beryljct,423,01MAR2019:00:30:00,46.9,12.95,47.1,46.8,46.7,46.9,46.6,60,60,59,0.645,33.4,33.6,33.3,14.18,14.5,209,6.7,18.6,0.00033,0.00039,.,33.5,24,0,0,46.0,10.85,0.00,0.00
15min,AgWx,beryljct,423,01MAR2019:00:45:00,46.8,12.95,46.0,46.2,46.6,46.9,46.2,59,60,59,0.645,33.3,33.4,33.2,9.89,13.4,212,7.4,17.3,0.00031,0.00037,.,33.4,24,0,0,45.8,10.84,0.00,0.00
15min,AgWx,beryljct,423,01MAR2019:01:00:00,46.6,12.94,46.8,46.3,46.3,46.5,46.0,60,61,60,0.644,33.3,33.5,33.2,10.11,12.7,211,6.6,16.8,0.00029,0.00035,.,33.5,24,0,0,45.5,10.85,0.00,0.00
15min,AgWx,beryljct,423,01MAR2019:01:15:00,46.3,12.93,46.1,45.6,45.9,46.4,45.5,61,62,60,0.642,33.3,33.4,33.2,11.95,10.9,212,6.6,14.8,0.00025,0.00031,.,33.4,24,0,0,45.1,10.85,0.00,0.00
15min,AgWx,beryljct,423,01MAR2019:01:30:00,46.0,12.93,45.7,45.0,45.5,46.0,45.0,62,64,61,0.647,33.3,33.5,33.2,11.33,10.9,210,5.5,14.3,0.00024,0.00029,.,33.4,25,0,0,44.7,10.85,0.00,0.00
15min,AgWx,beryljct,423,01MAR2019:01:45:00,45.6,12.93,45.1,44.3,44.7,45.1,44.3,64,65,63,0.646,33.4,33.5,33.2,10.13,9.6,212,4.6,12.0,0.00019,0.00024,.,33.4,24,0,0,43.8,10.85,0.00,0.00
15min,AgWx,beryljct,423,01MAR2019:02:00:00,45.2,12.92,44.5,44.6,44.5,44.7,44.3,65,65,64,0.648,33.4,33.6,33.3,9.1,10.0,209,4.3,12.9,0.00019,0.00024,.,33.4,24,0,0,43.7,10.85,0.00,0.00
15min,AgWx,beryljct,423,01MAR2019:02:15:00,44.9,12.93,44.4,44.2,44.4,44.6,44.2,65,66,65,0.646,33.5,33.6,33.3,8.9,10.2,201,5.3,12.2,0.00019,0.00024,.,33.4,24,0,0,43.7,10.85,0.00,0.00
15min,AgWx,beryljct,423,01MAR2019:02:30:00,44.5,12.92,42.4,41.9,43.4,44.4,41.9,67,71,65,0.629,33.3,33.6,32.6,5.7,7.6,192,11,11.2,0.00012,0.00016,.,33.4,24,0,0,42.7,10.85,0.00,0.00
15min,AgWx,beryljct,423,01MAR2019:02:45:00,43.6,12.92,41.8,42.2,41.8,42.7,41.0,71,73,69,0.638,33.1,33.6,32.5,4.406,6.6,179,8.4,7.9,0.00006,0.00009,.,33.4,24,0,0,41.2,10.85,0.00,0.00
15min,AgWx,beryljct,423,01MAR2019:03:00:00,42.7,12.91,39.4,39.5,40.8,42.1,39.5,73,75,70,0.615,32.8,33.2,32.2,5.327,4.6,178,6.5,5.3,-0.00001,0.00001,.,33.4,24,0,0,39.9,10.85,0.01,0.00
15min,AgWx,beryljct,423,01MAR2019:03:15:00,41.6,12.91,41.2,40.2,39.5,40.2,39.1,76,77,75,0.638,32.6,33.1,32.2,7.059,6.1,188,3.9,7.4,0.00002,0.00004,.,33.4,24,0,0,38.7,10.85,0.00,0.00
15min,AgWx,beryljct,423,01MAR2019:03:30:00,41.0,12.89,41.6,40.7,40.5,40.9,40.2,75,75,74,0.637,33.1,33.4,32.8,7.519,7.2,186,4.8,8.4,0.00005,0.00007,.,33.5,24,0,0,39.9,10.85,0.00,0.00
15min,AgWx,beryljct,423,01MAR2019:03:45:00,41.1,12.91,42.5,42.2,41.8,42.3,40.7,73,75,72,0.663,33.8,34.1,33.2,8.72,8.1,190,6.7,10.8,0.00008,0.00011,.,33.4,25,0,0,41.6,10.85,0.00,0.00
15min,AgWx,beryljct,423,01MAR2019:04:00:00,41.7,12.9,42.5,42.5,42.5,42.8,42.1,72,73,71,0.661,34.1,34.2,33.8,6.292,8.3,195,5.7,11.0,0.00010,0.00013,.,33.5,24,0,0,42.4,10.85,0.00,0.00
15min,AgWx,beryljct,423,01MAR2019:04:15:00,42.2,12.9,43.5,43.0,42.7,43.0,42.3,72,72,71,0.667,34.2,34.4,33.9,8.81,9.0,192,7.0,11.8,0.00011,0.00014,.,33.4,24,0,0,42.5,10.85,0.00,0.00
15min,AgWx,beryljct,423,01MAR2019:04:30:00,42.4,12.89,42.8,42.2,42.6,43.0,42.0,72,73,71,0.666,34.1,34.3,33.8,7.125,8.0,186,5.5,11.0,0.00009,0.00012,.,33.5,25,0,0,42.3,10.85,0.00,0.00
15min,AgWx,beryljct,423,01MAR2019:04:45:00,42.1,12.87,43.0,41.5,41.4,42.2,40.5,74,75,72,0.660,33.6,34.1,32.9,3.003,3.8,206,90,7.2,-0.00004,-0.00003,.,33.4,24,0,0,40.7,10.85,0.00,0.00
15min,AgWx,beryljct,423,01MAR2019:05:00:00,41.5,12.89,36.7,37.1,40.3,42.6,37.1,73,78,69,0.583,32.3,34.0,30.7,1.6,3.3,332,27,6.2,-0.00006,-0.00005,.,33.4,25,0,0,39.3,10.85,0.00,0.00
15min,AgWx,beryljct,423,01MAR2019:05:15:00,40.3,12.89,37.7,37.2,37.2,38.4,36.4,79,82,76,0.601,31.4,32.4,30.6,1.337,2.6,296,29,4.8,-0.00010,-0.00012,.,33.5,25,0,0,36.2,10.85,0.01,0.00
15min,AgWx,beryljct,423,01MAR2019:05:30:00,39.3,12.89,38.2,37.3,38.1,39.2,37.1,79,81,75,0.592,32.0,33.0,30.9,1.622,1.6,245,38,3.2,-0.00015,-0.00020,.,33.4,24,0,0,35.9,10.86,0.00,0.00
15min,AgWx,beryljct,423,01MAR2019:05:45:00,38.4,12.86,38.0,37.1,38.1,39.9,36.4,78,83,73,0.607,31.8,33.3,29.5,1.973,1.4,166,21,3.6,-0.00016,-0.00021,.,33.4,25,0,0,35.6,10.86,0.00,0.00
15min,AgWx,beryljct,423,01MAR2019:06:00:00,37.7,12.87,38.7,37.5,37.0,37.9,36.2,80,83,77,0.619,31.6,32.4,30.1,2.938,2.7,13,27,4.5,-0.00010,-0.00012,.,33.4,24,0,0,35.8,10.86,0.00,0.00
15min,AgWx,beryljct,423,01MAR2019:06:15:00,37.2,12.87,36.7,37.6,37.1,38.8,35.8,81,85,76,0.581,31.8,33.8,30.3,2.499,1.8,330,58,3.6,-0.00015,-0.00019,.,33.4,25,0,0,35.7,10.86,0.00,0.00
15min,AgWx,beryljct,423,01MAR2019:06:30:00,36.8,12.85,36.4,35.8,36.8,38.2,35.5,80,83,76,0.585,31.1,32.5,29.9,3.047,1.9,312,18,4.0,0.00008,0.00013,.,33.4,25,0,0,35.5,10.85,0.00,0.00
15min,AgWx,beryljct,423,01MAR2019:06:45:00,36.4,12.86,40.7,40.2,37.8,40.2,35.9,79,83,75,0.634,32.0,33.0,30.2,0.986,1.9,315,15,3.7,0.00008,0.00014,.,33.4,25,0,0,35.8,10.85,0.00,0.00
15min,AgWx,beryljct,423,01MAR2019:07:00:00,36.5,12.85,40.8,41.3,39.9,41.4,38.9,75,77,71,0.631,32.5,33.7,31.0,3.157,1.9,317,33,3.6,0.00010,0.00017,.,33.4,25,0,0,37.0,10.86,0.01,0.00
15min,AgWx,beryljct,423,01MAR2019:07:15:00,36.9,12.85,40.9,40.2,40.1,41.3,37.9,74,80,69,0.605,32.4,33.8,29.9,2.543,3.1,306,40,4.8,0.00018,0.00030,.,33.4,25,4,0,38.3,10.86,0.00,0.00
15min,AgWx,beryljct,423,01MAR2019:07:30:00,37.2,12.87,35.8,35.7,39.8,43.5,35.7,74,81,65,0.572,32.1,34.6,29.9,2.609,2.4,218,42,5.4,0.00020,0.00030,.,33.4,25,16,0,38.7,10.86,0.00,0.00
15min,AgWx,beryljct,423,01MAR2019:07:45:00,36.7,12.94,32.1,31.6,32.9,35.7,31.6,85,88,80,0.528,28.9,30.5,28.2,0.373,1.6,326,41,3.1,0.00021,0.00026,.,33.4,25,40,0,35.8,10.86,0.00,0.00
15min,AgWx,beryljct,423,01MAR2019:08:00:00,36.4,13.11,39.9,37.9,33.8,37.9,31.6,88,89,85,0.656,30.6,33.8,28.4,0.153,1.0,201,28,2.3,0.00049,0.00054,.,33.4,25,135,0,44.9,10.86,0.00,0.00
15min,AgWx,beryljct,423,01MAR2019:08:15:00,37.5,13.27,36.8,36.4,37.5,39.8,36.0,82,85,77,0.621,32.5,33.6,31.7,5.568,3.6,52,20,7.8,0.00072,0.00085,.,33.4,24,181,0,49.6,10.86,0.00,0.00
15min,AgWx,beryljct,423,01MAR2019:08:30:00,38.4,13.29,38.3,37.4,36.6,37.4,36.2,85,85,85,0.643,32.5,33.3,32.0,0.833,4.5,39,11,6.5,0.00070,0.00082,.,33.4,24,174,0,45.4,10.86,0.00,0.00
15min,AgWx,beryljct,423,01MAR2019:08:45:00,39.4,13.33,39.0,38.5,38.1,38.6,37.4,82,85,81,0.641,33.0,33.4,32.8,0.789,1.1,297,21,2.0,0.00082,0.00091,.,33.4,24,189,0,49.5,10.86,0.00,0.00
15min,AgWx,beryljct,423,01MAR2019:09:00:00,40.6,13.49,40.7,40.2,39.2,40.3,38.6,81,82,80,0.677,33.8,34.8,33.2,1.776,0.7,123,78,1.9,0.00101,0.00109,.,33.4,24,229,0,54.5,10.85,0.00,0.00
15min,AgWx,beryljct,423,01MAR2019:09:15:00,42.0,14.44,43.1,42.7,41.6,42.7,40.3,78,80,74,0.692,35.3,35.9,34.5,3.508,2.0,84,6.3,3.5,0.00116,0.00129,.,33.4,25,251,0,55.4,10.86,0.00,0.00
15min,AgWx,beryljct,423,01MAR2019:09:30:00,43.7,14.54,44.8,44.0,43.5,44.0,42.7,73,74,71,0.705,35.3,35.8,34.8,2.148,2.7,74,12,3.5,0.00138,0.00157,.,33.4,25,288,0,57.7,10.85,0.00,0.00
15min,AgWx,beryljct,423,01MAR2019:09:45:00,45.3,14.53,45.6,45.3,44.6,45.3,44.0,71,73,69,0.721,35.8,36.6,35.4,0.965,1.9,92,12,3.2,0.00151,0.00169,.,33.3,25,307,0,60.2,10.85,0.00,0.00
15min,AgWx,beryljct,423,01MAR2019:10:00:00,46.8,14.47,45.9,45.9,45.7,46.2,45.3,70,71,68,0.722,36.3,37.0,35.9,2.105,1.3,126,32,2.8,0.00157,0.00173,.,33.3,24,311,0,64.3,10.85,0.00,0.00
15min,AgWx,beryljct,423,01MAR2019:10:15:00,48.3,14.44,47.0,46.8,46.1,46.8,45.8,68,71,67,0.748,36.3,37.7,35.7,1.622,2.0,132,18,3.2,0.00182,0.00203,.,33.4,25,362,0,66.1,10.85,0.00,0.00
15min,AgWx,beryljct,423,01MAR2019:10:30:00,49.6,14.42,49.0,47.8,47.4,48.1,46.8,67,69,65,0.741,37.0,37.7,36.3,2.346,2.3,128,16,4.1,0.00204,0.00229,.,33.4,25,405,0,67.9,10.85,0.00,0.00
15min,AgWx,beryljct,423,01MAR2019:10:45:00,51.5,14.39,52.4,51.5,50.0,51.5,48.0,62,68,56,0.743,37.3,38.9,36.0,10.06,7.4,170,28,16.0,0.00322,0.00382,.,33.4,25,673,0,71.1,10.85,0.00,0.00
15min,AgWx,beryljct,423,01MAR2019:11:00:00,53.7,14.36,52.8,52.5,52.1,52.6,51.5,55,57,51,0.708,36.2,37.4,34.8,11.68,10.6,196,14,14.1,0.00380,0.00466,.,33.3,24,759,0,71.0,10.84,0.00,0.00
15min,AgWx,beryljct,423,01MAR2019:11:15:00,54.8,14.36,52.3,52.4,52.2,52.9,51.9,52,55,49,0.684,35.0,37.1,33.4,10,11.0,204,15,14.8,0.00336,0.00426,.,33.4,24,628,0,66.5,10.84,0.00,0.00
15min,AgWx,beryljct,423,01MAR2019:11:30:00,55.2,14.37,52.2,52.9,52.3,53.1,51.9,51,54,48,0.708,34.9,36.8,33.5,13.04,10.3,192,17,14.3,0.00336,0.00422,.,33.4,24,626,0,65.8,10.84,0.00,0.00
15min,AgWx,beryljct,423,01MAR2019:11:45:00,55.9,13.94,53.1,52.9,52.6,53.3,52.0,51,54,49,0.727,35.1,36.7,33.5,10.33,10.5,183,16,15.6,0.00368,0.00459,.,33.4,24,711,0,66.8,10.84,0.00,0.00
15min,AgWx,beryljct,423,01MAR2019:12:00:00,56.6,13.95,52.7,52.8,52.9,53.6,52.3,52,55,49,0.691,35.8,37.8,33.9,12.78,10.5,176,12,16.1,0.00378,0.00469,.,33.4,24,733,0,66.8,10.84,0.00,0.00
15min,AgWx,beryljct,423,01MAR2019:12:15:00,57.1,13.96,55.4,53.6,53.1,53.8,52.7,52,55,49,0.723,35.7,37.3,34.2,10.59,10.5,183,15,15.3,0.00389,0.00481,.,33.5,24,748,0,67.4,10.84,0.00,0.00
15min,AgWx,beryljct,423,01MAR2019:12:30:00,57.3,13.94,53.8,54.2,53.7,54.6,52.9,52,57,48,0.742,36.6,39.5,34.4,11.42,11.3,184,15,16.0,0.00370,0.00465,.,33.5,24,708,0,66.0,10.83,0.00,0.00
15min,AgWx,beryljct,423,01MAR2019:12:45:00,57.6,14.01,53.6,54.5,54.1,54.6,53.3,52,56,49,0.728,37.0,38.7,35.4,13.46,12.5,179,15,16.7,0.00386,0.00486,.,33.6,24,738,0,65.7,10.84,0.00,0.00
15min,AgWx,beryljct,423,01MAR2019:13:00:00,57.9,13.98,55.7,54.5,54.5,55.1,53.9,50,54,47,0.697,36.2,38.2,34.8,9.43,12.6,188,12,18.0,0.00393,0.00499,.,33.6,24,736,0,65.6,10.83,0.00,0.00
15min,AgWx,beryljct,423,01MAR2019:13:15:00,58.2,13.87,54.7,54.8,54.9,55.5,54.5,47,51,44,0.661,35.3,37.2,33.7,14.49,13.1,197,16,21.8,0.00412,0.00527,.,33.7,24,761,0,66.2,10.83,0.00,0.00
15min,AgWx,beryljct,423,01MAR2019:13:30:00,58.6,13.86,55.9,55.5,54.8,55.5,54.3,46,50,44,0.689,34.7,36.4,33.6,14.4,12.9,199,18,18.2,0.00413,0.00529,.,33.8,24,759,0,65.2,10.83,0.00,0.00
15min,AgWx,beryljct,423,01MAR2019:13:45:00,58.9,13.88,55.2,54.6,55.1,55.7,54.3,46,50,45,0.676,34.9,37.1,33.4,14.53,14.1,197,10,20.2,0.00408,0.00529,.,33.8,24,740,0,65.1,10.83,0.00,0.00
15min,AgWx,beryljct,423,01MAR2019:14:00:00,59.0,13.98,54.7,55.1,55.0,55.8,54.5,46,48,44,0.689,34.7,36.3,33.2,15.17,13.7,199,10,17.5,0.00401,0.00520,.,33.9,24,724,0,64.1,10.83,0.00,0.00
15min,AgWx,beryljct,423,01MAR2019:14:15:00,59.1,13.88,56.4,55.2,54.9,55.5,54.4,47,50,45,0.731,35.0,36.7,33.4,11.53,14.2,208,13,19.9,0.00375,0.00494,.,34.0,24,667,0,62.8,10.83,0.00,0.00
15min,AgWx,beryljct,423,01MAR2019:14:30:00,59.0,13.87,55.3,54.9,54.7,55.3,54.3,48,50,45,0.735,35.5,36.7,33.8,15.5,14.1,183,11,21.1,0.00357,0.00471,.,34.1,24,637,0,61.8,10.83,0.00,0.00
15min,AgWx,beryljct,423,01MAR2019:14:45:00,59.0,13.88,55.0,54.5,54.7,55.2,54.3,47,49,45,0.688,34.8,36.3,33.8,14.84,15.1,193,11,19.3,0.00337,0.00457,.,34.2,24,576,0,61.1,10.83,0.00,0.00
15min,AgWx,beryljct,423,01MAR2019:15:00:00,58.8,13.95,53.8,54.0,54.4,55.0,54.0,47,50,45,0.654,34.5,36.6,33.1,15.96,14.1,195,11,18.3,0.00332,0.00446,.,34.3,24,574,0,60.7,10.83,0.00,0.00
15min,AgWx,beryljct,423,01MAR2019:15:15:00,58.7,13.93,54.1,54.1,54.4,54.8,53.9,47,49,45,0.675,34.9,36.1,33.2,14.21,12.4,191,10,17.1,0.00321,0.00426,.,34.4,24,559,0,60.4,10.82,0.00,0.00
15min,AgWx,beryljct,423,01MAR2019:15:30:00,58.7,13.84,53.7,54.3,54.3,54.6,53.9,48,51,45,0.686,34.9,37.0,33.2,12.52,13.1,188,12,18.8,0.00290,0.00397,.,34.5,24,484,0,59.5,10.83,0.00,0.00
15min,AgWx,beryljct,423,01MAR2019:15:45:00,58.4,13.89,54.6,54.5,54.1,54.8,53.6,49,51,47,0.703,35.2,36.4,34.0,9.95,11.3,195,15,16.8,0.00238,0.00331,.,34.6,24,387,0,59.8,10.82,0.00,0.00
15min,AgWx,beryljct,423,01MAR2019:16:00:00,58.0,13.86,54.4,54.1,54.1,54.5,53.8,49,50,47,0.698,35.2,35.9,34.2,12.52,12.1,195,8.1,15.6,0.00248,0.00345,.,34.7,24,404,0,58.9,10.82,0.00,0.00
15min,AgWx,beryljct,423,01MAR2019:16:15:00,57.5,13.89,53.6,53.5,53.6,54.1,53.0,49,51,47,0.666,35.0,36.5,34.1,13.94,13.1,189,18,17.2,0.00179,0.00275,.,34.8,25,236,0,56.8,10.83,0.01,0.00
15min,AgWx,beryljct,423,01MAR2019:16:30:00,56.6,13.93,53.4,53.4,53.4,53.7,53.0,49,51,47,0.678,34.6,35.9,33.5,12.89,12.5,200,13,17.7,0.00159,0.00252,.,34.8,24,199,0,57.0,10.83,0.00,0.00
15min,AgWx,beryljct,423,01MAR2019:16:45:00,55.9,13.38,52.3,52.3,52.8,53.4,52.3,49,51,47,0.684,34.3,35.2,33.6,10.61,13.9,190,11,18.5,0.00149,0.00246,.,35.0,24,162,0,56.3,10.82,0.00,0.00
15min,AgWx,beryljct,423,01MAR2019:17:00:00,55.0,13.33,52.3,52.0,52.0,52.3,51.7,50,52,47,0.623,33.8,35.0,32.4,12.5,13.5,176,11,18.9,0.00123,0.00213,.,35.0,24,114,0,54.5,10.83,0.01,0.00
15min,AgWx,beryljct,423,01MAR2019:17:15:00,54.2,13.23,51.8,51.4,51.7,52.0,51.4,43,47,41,0.552,30.1,32.5,28.7,12.28,12.3,195,12,17.2,0.00119,0.00214,.,35.1,24,92,0,53.9,10.83,0.00,0.00
15min,AgWx,beryljct,423,01MAR2019:17:30:00,53.6,14,51.7,51.2,51.3,51.5,51.2,42,43,40,0.531,28.8,29.8,27.7,13.94,12.6,195,9.2,18.1,0.00068,0.00080,.,35.2,24,123,0,53.4,10.83,0.01,0.00
15min,AgWx,beryljct,423,01MAR2019:17:45:00,53.0,13.22,50.4,50.3,50.9,51.3,50.2,43,45,41,0.549,29.1,30.2,28.0,11.11,13.8,195,8.2,18.8,0.00063,0.00074,.,35.3,24,78,0,51.7,10.83,0.00,0.00
15min,AgWx,beryljct,423,01MAR2019:18:00:00,52.1,13.16,49.7,49.8,50.0,50.3,49.7,45,47,44,0.553,29.7,30.5,29.1,8.57,10.6,192,9.7,14.6,0.00047,0.00058,.,35.3,24,35,0,50.2,10.83,0.00,0.00
15min,AgWx,beryljct,423,01MAR2019:18:15:00,51.4,13.11,49.8,49.4,49.6,49.9,49.4,44,46,42,0.527,28.6,29.9,27.9,12.43,8.9,195,10,13.8,0.00040,0.00051,.,35.4,24,17,0,49.7,10.83,0.00,0.00
15min,AgWx,beryljct,423,01MAR2019:18:30:00,50.9,13.09,48.8,49.1,49.3,49.6,49.0,42,44,39,0.506,27.1,28.1,25.7,10.28,10.8,200,8.8,17.0,0.00046,0.00057,.,35.5,24,4,0,49.2,10.83,0.00,0.00
15min,AgWx,beryljct,423,01MAR2019:18:45:00,50.5,13.05,49.0,48.9,49.0,49.2,48.8,42,43,41,0.508,27.0,27.5,26.4,12.34,12.1,201,7.4,17.1,0.00048,0.00058,.,35.5,24,1,0,48.9,10.83,0.00,0.00
15min,AgWx,beryljct,423,01MAR2019:19:00:00,50.2,13.05,49.0,48.4,48.8,49.2,48.3,43,46,42,0.519,27.5,28.5,26.7,11.05,11.0,199,6.2,17.5,0.00044,0.00054,.,35.6,24,0,0,48.7,10.83,0.00,0.00
15min,AgWx,beryljct,423,01MAR2019:19:15:00,49.8,13.05,48.5,47.8,48.0,48.5,47.7,47,48,45,0.542,28.7,29.2,28.0,6.949,7.8,200,5.8,11.5,0.00031,0.00040,.,35.6,24,0,0,47.9,10.83,0.00,0.00
15min,AgWx,beryljct,423,01MAR2019:19:30:00,49.4,13.04,48.5,47.9,47.8,47.9,47.6,48,49,48,0.547,29.2,29.6,28.9,13.53,9.2,202,7.7,13.8,0.00033,0.00042,.,35.7,24,0,0,47.7,10.83,0.00,0.00
15min,AgWx,beryljct,423,01MAR2019:19:45:00,49.1,13.03,48.0,47.5,47.8,48.1,47.5,49,50,47,0.557,29.3,29.7,28.6,11.14,10.2,210,7.2,15.7,0.00036,0.00045,.,35.7,24,0,0,47.8,10.84,0.00,0.00
15min,AgWx,beryljct,423,01MAR2019:20:00:00,48.9,13.03,46.7,46.5,47.2,47.7,46.5,51,53,49,0.567,29.8,30.3,29.3,4.823,7.1,208,6.5,10.2,0.00025,0.00033,.,35.8,24,0,0,47.0,10.83,0.00,0.00
15min,AgWx,beryljct,423,01MAR2019:20:15:00,48.4,13,46.7,46.3,46.5,46.8,46.2,53,54,51,0.572,30.1,30.5,29.7,3.946,5.6,212,8.0,7.7,0.00016,0.00023,.,35.8,25,0,0,46.4,10.83,0.00,0.00
15min,AgWx,beryljct,423,01MAR2019:20:30:00,48.2,13.01,47.1,47.0,47.1,47.5,46.2,51,54,49,0.567,29.7,30.4,29.2,7.432,8.5,211,7.0,11.8,0.00029,0.00037,.,35.9,24,0,0,47.1,10.84,0.01,0.00
15min,AgWx,beryljct,423,01MAR2019:20:45:00,48.0,13.01,46.7,45.5,46.3,46.9,45.5,53,56,52,0.571,30.2,30.6,29.9,5.393,5.6,213,8.2,8.0,0.00016,0.00023,.,35.9,25,0,0,46.1,10.84,0.00,0.00
15min,AgWx,beryljct,423,01MAR2019:21:00:00,47.4,12.99,45.9,45.0,45.7,45.9,45.0,55,57,53,0.578,30.3,30.9,29.9,5.13,5.1,197,11,7.5,0.00012,0.00018,.,35.9,25,0,0,45.2,10.84,0.00,0.00
15min,AgWx,beryljct,423,01MAR2019:21:15:00,46.7,12.99,44.1,43.5,43.9,45.1,43.3,60,62,56,0.581,31.0,31.4,30.5,3.771,4.5,177,8.8,6.9,0.00006,0.00010,.,36.0,24,0,0,43.7,10.84,0.00,0.00
15min,AgWx,beryljct,423,01MAR2019:21:30:00,45.8,12.98,42.7,43.1,43.6,44.0,43.1,60,62,59,0.583,30.9,31.0,30.6,1.052,3.0,188,12,5.4,-0.00002,-0.00000,.,36.0,25,0,0,42.4,10.84,0.00,0.00
15min,AgWx,beryljct,423,01MAR2019:21:45:00,44.7,12.98,43.2,44.1,43.8,44.6,42.9,60,63,57,0.569,30.6,31.1,30.2,2.74,0.5,177,12,3.4,-0.00025,-0.00038,.,36.0,25,0,0,40.7,10.84,0.00,0.00
15min,AgWx,beryljct,423,01MAR2019:22:00:00,43.8,12.96,42.1,41.8,43.3,44.9,41.2,59,66,54,0.566,29.9,30.9,29.3,4.604,2.6,248,23,4.8,-0.00005,-0.00004,.,36.0,25,0,0,40.9,10.84,0.00,0.00
15min,AgWx,beryljct,423,01MAR2019:22:15:00,42.9,12.97,40.4,39.9,40.6,42.4,38.9,67,72,61,0.576,30.3,30.8,29.8,4.845,4.3,232,16,4.9,0.00002,0.00004,.,36.0,25,0,0,39.8,10.85,0.00,0.00
15min,AgWx,beryljct,423,01MAR2019:22:30:00,42.2,12.96,42.5,40.6,40.6,42.0,39.5,67,72,62,0.592,30.6,31.4,29.7,4.801,3.8,228,5.1,4.8,-0.00001,0.00001,.,36.1,24,0,0,40.6,10.85,0.00,0.00
15min,AgWx,beryljct,423,01MAR2019:22:45:00,41.9,12.95,44.2,43.8,42.0,43.8,40.7,64,69,58,0.561,30.6,31.4,29.8,5.809,4.8,232,8.3,6.7,0.00005,0.00008,.,36.1,25,0,0,41.4,10.85,0.00,0.00
15min,AgWx,beryljct,423,01MAR2019:23:00:00,42.0,12.96,42.9,42.9,43.7,44.0,42.9,57,59,57,0.552,29.6,29.9,29.4,4.954,5.2,249,3.4,6.4,0.00010,0.00016,.,36.1,25,0,0,42.4,10.85,0.00,0.00
15min,AgWx,beryljct,423,01MAR2019:23:15:00,41.8,12.94,40.0,40.5,41.8,43.6,40.5,61,66,56,0.553,29.5,29.9,28.9,5.042,5.3,260,6.9,5.8,0.00008,0.00012,.,36.1,24,0,0,41.0,10.85,0.00,0.00
15min,AgWx,beryljct,423,01MAR2019:23:30:00,41.1,12.94,38.5,38.8,39.5,40.5,38.1,67,70,65,0.546,29.4,29.9,28.5,2.587,5.4,270,17,7.1,0.00005,0.00008,.,36.1,24,0,0,38.9,10.85,0.00,0.00
15min,AgWx,bigpiney,439,01MAR2019:00:00:00,25.6,12.75,22.0,22.0,22.3,22.7,21.8,94,94,93,0.379,20.7,21.2,20.2,2.302,1.9,143,98,4.5,-0.00006,-0.00008,30.2,30.2,8,0,1,0.0,0.09,0.00,0.00
15min,AgWx,bigpiney,439,01MAR2019:00:15:00,25.4,12.75,22.8,21.7,21.6,22.2,21.0,93,94,93,0.372,20.0,20.7,19.3,1.25,2.3,108,92,5.9,-0.00005,-0.00006,30.2,30.3,8,0,1,0.0,0.09,0.00,0.00
15min,AgWx,bigpiney,439,01MAR2019:00:30:00,24.8,12.75,18.9,19.3,20.3,22.1,18.6,92,94,90,0.332,18.4,20.6,16.2,0.066,1.5,282,39,4.1,-0.00006,-0.00008,30.2,30.3,8,0,1,0.0,0.09,0.00,0.00
15min,AgWx,bigpiney,439,01MAR2019:00:45:00,23.8,12.71,19.8,18.9,19.1,20.0,18.0,92,93,90,0.323,17.1,18.3,15.5,2.368,1.1,144,78,3.7,-0.00007,-0.00009,30.2,30.2,8,0,1,0.0,0.09,0.00,0.00
15min,AgWx,bigpiney,439,01MAR2019:01:00:00,23.0,12.72,23.3,23.2,21.0,23.2,18.9,88,91,85,0.363,18.1,19.5,16.5,15.3,6.1,234,32,15.9,-0.00000,0.00000,30.2,30.3,8,0,1,0.0,0.09,0.00,0.00
15min,AgWx,bigpiney,439,01MAR2019:01:15:00,23.2,12.71,22.5,23.6,23.6,23.8,23.3,82,86,78,0.337,19.0,20.0,17.8,7.344,10.4,281,16,15.8,0.00005,0.00006,30.2,30.3,8,0,1,0.0,0.09,0.00,0.00
15min,AgWx,bigpiney,439,01MAR2019:01:30:00,23.5,12.72,18.2,19.3,21.7,23.6,19.3,81,88,77,0.312,16.8,17.7,15.4,0.307,4.7,22,53,9.3,0.00001,0.00002,30.3,30.3,8,0,1,0.0,0.09,0.00,0.00
15min,AgWx,bigpiney,439,01MAR2019:01:45:00,23.2,12.7,23.1,21.7,20.3,21.7,18.0,87,92,83,0.331,17.0,18.3,14.8,7.322,2.5,295,48,7.3,-0.00004,-0.00004,30.3,30.3,8,0,1,0.0,0.09,0.00,0.00
15min,AgWx,bigpiney,439,01MAR2019:02:00:00,23.1,12.7,25.0,24.7,24.1,24.7,22.0,76,83,73,0.328,17.6,18.2,17.1,16.24,10.7,268,9.8,17.7,0.00008,0.00009,30.3,30.2,8,0,1,0.0,0.09,0.00,0.00
15min,AgWx,bigpiney,439,01MAR2019:02:15:00,23.6,12.7,24.6,24.2,24.5,25.0,24.0,73,74,72,0.327,17.1,17.4,16.9,10.08,11.6,271,7.9,19.3,0.00010,0.00011,30.3,30.3,8,0,0,0.0,0.09,0.00,0.00
15min,AgWx,bigpiney,439,01MAR2019:02:30:00,24.1,12.68,25.9,24.7,24.3,24.7,23.9,72,74,69,0.313,16.4,17.0,15.9,15.7,11.3,265,8.6,15.7,0.00010,0.00012,30.3,30.3,8,0,0,0.0,0.09,0.00,0.00
15min,AgWx,bigpiney,439,01MAR2019:02:45:00,24.4,12.69,25.1,24.5,24.7,24.9,24.5,68,69,67,0.299,15.6,16.0,15.0,12.89,13.2,268,8.5,16.0,0.00013,0.00015,30.3,30.3,8,0,0,0.0,0.09,0.00,0.00
15min,AgWx,bigpiney,439,01MAR2019:03:00:00,24.7,12.67,24.8,24.3,24.3,24.6,24.0,65,67,64,0.287,14.4,14.9,14.0,10.3,12.5,271,6.6,18.3,0.00013,0.00015,30.3,30.3,8,0,0,0.0,0.09,0.00,0.00
15min,AgWx,bigpiney,439,01MAR2019:03:15:00,24.7,12.67,24.3,24.2,24.3,24.6,24.1,63,65,61,0.273,13.4,14.2,12.9,11.57,12.7,270,7.9,18.4,0.00015,0.00017,30.3,30.3,8,0,0,0.0,0.09,0.00,0.00
15min,AgWx,bigpiney,439,01MAR2019:03:30:00,24.6,12.66,24.0,24.1,24.0,24.2,23.8,61,62,58,0.256,12.3,13.0,11.4,11.6,11.3,286,10,15.3,0.00015,0.00017,30.3,30.3,8,0,0,0.0,0.09,0.00,0.00
15min,AgWx,bigpiney,439,01MAR2019:03:45:00,24.4,12.66,23.6,23.3,23.5,24.0,23.1,58,59,57,0.244,10.9,11.4,10.4,10,9.9,286,14,14.4,0.00015,0.00017,30.3,30.3,8,0,0,0.0,0.09,0.00,0.00
15min,AgWx,bigpiney,439,01MAR2019:04:00:00,24.1,12.66,22.3,22.4,22.8,23.4,22.0,56,57,53,0.219,9.4,10.4,8.0,8.62,9.0,269,9.9,14.9,0.00014,0.00017,30.3,30.4,8,0,0,0.0,0.09,0.00,0.00
15min,AgWx,bigpiney,439,01MAR2019:04:15:00,23.5,12.65,21.9,21.6,21.8,22.4,21.5,51,54,48,0.202,6.6,8.0,5.5,13.83,10.5,281,8.9,16.2,0.00017,0.00020,30.3,30.3,8,0,0,0.0,0.09,0.00,0.00
15min,AgWx,bigpiney,439,01MAR2019:04:30:00,22.9,12.65,22.0,20.7,20.6,21.6,19.6,55,57,51,0.218,6.9,7.8,6.2,7.782,9.1,325,17,13.3,0.00014,0.00016,30.3,30.3,8,0,0,0.0,0.09,0.00,0.00
15min,AgWx,bigpiney,439,01MAR2019:04:45:00,22.3,12.64,21.6,21.6,21.2,22.4,20.5,53,57,50,0.213,6.8,8.1,6.2,9.58,7.1,321,34,13.2,0.00013,0.00015,30.3,30.3,8,0,0,0.0,0.09,0.00,0.00
15min,AgWx,bigpiney,439,01MAR2019:05:00:00,21.7,12.64,20.2,19.8,19.5,21.5,18.0,63,67,54,0.220,8.9,9.8,7.3,8.51,8.2,21,28,13.6,0.00010,0.00012,30.3,30.3,8,0,0,0.0,0.09,0.00,0.00
15min,AgWx,bigpiney,439,01MAR2019:05:15:00,21.1,12.63,20.0,19.3,19.6,20.4,18.8,59,62,58,0.214,7.8,8.5,6.8,11.84,5.9,332,41,12.1,0.00008,0.00011,30.3,30.3,8,0,0,0.0,0.09,0.00,0.00
15min,AgWx,bigpiney,439,01MAR2019:05:30:00,20.5,12.61,16.2,16.2,17.3,19.5,16.2,57,60,53,0.174,4.7,7.6,2.9,7.234,9.4,358,12,16.2,0.00012,0.00014,30.3,30.4,8,0,0,0.0,0.09,0.00,0.00
15min,AgWx,bigpiney,439,01MAR2019:05:45:00,19.7,12.6,14.7,13.9,14.2,16.1,13.3,59,62,55,0.173,2.7,3.1,2.2,6.226,5.1,302,44,9.3,0.00006,0.00008,30.3,30.3,8,0,0,0.0,0.09,0.00,0.00
15min,AgWx,bigpiney,439,01MAR2019:06:00:00,18.6,12.62,15.7,15.4,14.8,16.0,13.1,60,62,58,0.182,3.4,4.2,2.2,10.96,9.0,332,39,14.2,0.00009,0.00011,30.3,30.4,8,0,0,0.0,0.09,0.00,0.00
15min,AgWx,bigpiney,439,01MAR2019:06:15:00,18.1,12.6,18.5,18.1,16.2,18.1,15.4,58,60,54,0.185,3.9,4.4,3.4,13.59,12.2,331,13,18.7,0.00012,0.00014,30.3,30.4,8,0,0,0.0,0.09,0.00,0.00
15min,AgWx,bigpiney,439,01MAR2019:06:30:00,17.9,12.61,17.4,17.3,17.7,18.8,16.7,55,57,54,0.181,4.4,4.9,3.8,10.22,10.3,309,14,15.8,0.00013,0.00015,30.3,30.3,8,0,0,0.0,0.09,0.00,0.00
15min,AgWx,bigpiney,439,01MAR2019:06:45:00,17.9,12.61,17.5,16.7,16.1,17.2,15.5,58,60,55,0.186,4.0,4.5,3.4,9.95,9.2,313,15,14.9,0.00011,0.00013,30.3,30.3,8,1,0,0.0,0.09,0.00,0.00
15min,AgWx,bigpiney,439,01MAR2019:07:00:00,17.6,12.66,16.0,16.0,15.7,16.9,14.6,59,61,58,0.181,4.0,4.5,3.4,7.497,7.5,283,15,11.2,0.00009,0.00011,30.3,30.4,8,6,0,0.0,0.09,0.00,0.00
15min,AgWx,bigpiney,439,01MAR2019:07:15:00,17.3,13.06,14.4,13.6,14.9,16.0,13.6,60,63,58,0.178,3.6,4.1,3.0,5.02,5.9,285,11,9.0,0.00006,0.00020,30.3,30.4,8,38,0,0.0,0.09,0.00,0.00
15min,AgWx,bigpiney,439,01MAR2019:07:30:00,17.0,14.98,11.0,10.3,13.3,14.4,10.0,62,67,60,0.164,2.7,3.8,0.3,2.916,3.7,317,72,5.3,0.00007,0.00016,30.3,30.4,8,77,0,0.0,0.09,0.00,0.00
15min,AgWx,bigpiney,439,01MAR2019:07:45:00,16.8,15.04,13.0,12.2,11.6,12.3,10.5,67,68,66,0.177,2.8,3.6,1.8,1.491,1.8,122,57,3.8,0.00011,0.00016,30.3,30.3,8,121,0,0.0,0.09,0.00,0.00
15min,AgWx,bigpiney,439,01MAR2019:08:00:00,17.0,14.97,15.0,14.7,14.1,14.8,12.2,62,67,60,0.180,3.6,3.8,3.3,2.148,1.8,79,60,3.7,0.00025,0.00031,30.3,30.4,8,167,0,0.0,0.09,0.00,0.00
15min,AgWx,bigpiney,439,01MAR2019:08:15:00,17.9,14.99,13.1,12.5,13.3,14.6,12.2,63,66,61,0.176,3.2,3.8,2.5,3.771,4.2,29,12,6.0,0.00040,0.00051,30.3,30.4,8,215,0,0.0,0.09,0.00,0.00